Regional Weather Roundup
Issued by NWS

Home | Current Version | Previous Version | Text Only | Print | Product List | Glossary On
Versions: 1 2 3 4 5 6 7 8 9 10 11 12 13 14 15 16 17 18 19 20 21 22 23 24 25 26 27 28 29 30 31 32 33 34 35 36 37 38 39 40 41 42 43 44 45 46 47 48 49 50
000
ASUS42 KTBW 230210
RWRFL
FLORIDA REGIONAL WEATHER ROUNDUP
NATIONAL WEATHER SERVICE TAMPA BAY RUSKIN FL
1000 PM EDT TUE JUL 22 2014

NOTE: "FAIR" INDICATES FEW OR NO CLOUDS BELOW 12,000 FEET WITH NO
SIGNIFICANT WEATHER AND/OR OBSTRUCTIONS TO VISIBILITY.


FLZ001>010-012>015-112-114-115-230300-
PANHANDLE FLORIDA

CITY           SKY/WX    TMP DP  RH WIND       PRES   REMARKS
PENSACOLA      FAIR      78  73  84 SW3       30.04R
PENSACOLA NAS  FAIR      77  75  93 CALM      30.04R
MILTON NAS     FAIR      76  72  87 NW3       30.06R
CRESTVIEW      FAIR      76  74  93 CALM      30.08R
DUKE FIELD     PTCLDY    79  76  93 S5        30.06R
VALPARAISO     PTCLDY    80  75  85 SE2       30.06R
MARY ESTHER    FAIR      81  72  74 CALM      30.04R
PANAMA CITY    FAIR      79  75  87 CALM      30.05R
TYNDALL AFB    FAIR      77  74  90 E1        30.07R
APALACHICOLA   FAIR      77  71  82 W3        30.05S

STATION/POSITION SKY/WX   TEMP    WIND        PRES    WAVE   SWELL
                          AIR SEA DIR/SP/G            HT/PER HT/PER
                          (F)     (DEG/KT/KT) (MB)    (FT/S) (FT/S)
30.1N   87.6W              83 84  280/  2/  2 1017.3R   1/ 4
29.2N   88.2W              83 85  260/  2/  2 1017.2
28.8N   86.0W              81 83  240/  4/  6 1017.6    1/ 4   2/ 4
PANAMA CITY BEAC           82 83  160/  6/  7 1017.7R
CAPE SAN BLAS    NOT AVBL
TOWER C                    82     220/  3/  4 1017.6S
28.5N   84.5W              84 86   CALM  /  2 1017.8R   1/ 8

$$
FLZ011-016>038-118-127-128-134-139-239-230300-
NORTH FLORIDA

CITY           SKY/WX    TMP DP  RH WIND       PRES   REMARKS
MARIANNA       FAIR      79  75  87 CALM      30.05R
TALLAHASSEE    FAIR      80  74  81 CALM      30.06R
PERRY          FAIR      77  72  83 CALM      30.07S
CROSS CITY       N/A     80  73  79 SE5       30.06R
GAINESVILLE    FAIR      74  73  97 CALM      30.06F
MAYPORT NAS    MOCLDY    82  74  76 SE5       30.05F
JACKSONVILLE   MOCLDY    80  75  84 CALM      30.05F
JAX NAS        CLOUDY    84  74  71 SE3       30.06F
JAX CRAIG      FAIR      80  75  84 CALM      30.05F
JAX CECIL      LGT RAIN  77  75  94 CALM      30.06F
FERNANDINA BEA FAIR      81  73  78 CALM      30.05F
ST AUGUSTINE   FAIR      81  75  82 E6        30.06F

STATION/POSITION SKY/WX   TEMP    WIND        PRES    WAVE   SWELL
                          AIR SEA DIR/SP/G            HT/PER HT/PER
                          (F)     (DEG/KT/KT) (MB)    (FT/S) (FT/S)
SHELL POINT                83     220/  7/  9   N/A
KEATON BEACH               83     210/  3/  4 1018.0R
CEDAR KEY                  83      30/  3/  3 1018.1R
FERNANDINA                 81 84  130/  3/  3 1017.6F
30.7N   81.3W                 84                N/A     3/ 8
MAYPORT                    81 84  110/  1/  4   N/A
31.4N   80.9W              81 84  140/ 10/ 12 1018.5R   2/ 9   2/ 9
ST AUGUSTINE               82     130/ 10/ 11 1018.4F

$$
FLZ040-043>046-052-053-057-058-063-144-230300-
INTERIOR CENTRAL FLORIDA

CITY           SKY/WX    TMP DP  RH WIND       PRES   REMARKS
OCALA          FAIR      77  66  69 CALM      30.07R
LEESBURG       MOCLDY    77  74  90 E3        30.08R
SANFORD        FAIR      79  74  84 S5        30.07R
ORLANDO EXEC   LGT RAIN  76  74  93 W3        30.07R
ORLANDO INTL   MOCLDY    76  73  91 CALM      30.08R
KISSIMMEE      CLEAR     75  75 100 CALM      30.07R
WINTER HAVEN   FAIR      76  72  87 CALM      30.08R
LAKELAND       PTCLDY    77  73  88 CALM      30.06R
BARTOW         FAIR      73 N/A N/A E3        30.08R
OKEECHOBEE       N/A     73  73 100 MISG      30.07S

$$
FLZ041-047-054-059-064-141-147-230300-
EAST CENTRAL FLORIDA

CITY           SKY/WX    TMP DP  RH WIND       PRES   REMARKS
DAYTONA BEACH  CLOUDY    80  78  94 SW3       30.06S
DELAND         FAIR      79  75  89 CALM      30.08R
JFK SPACE CTR  FAIR      75  75 100 CALM      30.06R
CAPE CANAVERAL FAIR      76  74  93 CALM      30.06R
PATRICK AFB    FAIR      77  74  90 NW1       30.07R
MELBOURNE      FAIR      75  73  93 CALM      30.06R
VERO BEACH     FAIR      76  76 100 CALM      30.07R
FT PIERCE      FAIR      77  74  90 CALM      30.06R
STUART         FAIR      77  73  88 CALM      30.07R

STATION/POSITION SKY/WX   TEMP    WIND        PRES    WAVE   SWELL
                          AIR SEA DIR/SP/G            HT/PER HT/PER
                          (F)     (DEG/KT/KT) (MB)    (FT/S) (FT/S)
28.5N   80.2W              83 84  190/  6/  8 1018.1R
28.9N   78.5W              83 83  140/ 12/ 14 1019.4R   4/ 6   3/ 6
TRIDENT PIER               78 87  290/  1/  3 1017.5S
28.4N   80.5W                 85                N/A     2/ 8
27.6N   80.2W                 84                N/A     2/ 8

$$
FLZ050-056-061-142-242-148-248-149-249-151-251-155-255-
160-260-230300-
WEST CENTRAL FLORIDA

CITY           SKY/WX    TMP DP  RH WIND       PRES   REMARKS
CRYSTAL RIVER  FAIR      81  72  74 CALM      30.06R
INVERNESS      CLOUDY    77  73  88 CALM      30.07R
BROOKSVILLE    FAIR      81  73  76 N5        30.07R
ZEPHYRHILLS    MOCLDY    75  73  94 E3        30.08R
CLEARWATER     FAIR      83  75  77 N6        30.05R
TAMPA INTL     MOCLDY    83  70  64 NE6       30.06R
TAMPA EXEC     FAIR      81  73  78 CALM      30.07R
PLANT CITY     FAIR      79  79 100 S3        30.08R
MACDILL AFB    FAIR      82  78  88 SE8       30.06R
ST PETERSBURG  FAIR      86  74  67 N5        30.04R
SARASOTA       FAIR      80  75  84 E8        30.05R
VENICE         FAIR      79  75  89 SE6       30.07R

STATION/POSITION SKY/WX   TEMP    WIND        PRES    WAVE   SWELL
                          AIR SEA DIR/SP/G            HT/PER HT/PER
                          (F)     (DEG/KT/KT) (MB)    (FT/S) (FT/S)
CEDAR KEY                  83      30/  3/  3 1018.1R
28.5N   84.5W              84 86   CALM  /  2 1017.8R   1/ 8
27.3N   84.3W                 87                N/A     1/ 5
CLEARWATER BEACH           85 89  340/  5/  6 1017.3R
MIDDLE TAMPA BAY           85     330/  7/ 10 1017.8R
VENICE                     81 89   80/  5/  6 1016.9R

$$
FLZ066-069-070-075>078-162-262-165-265-230300-
SOUTHWEST FLORIDA AND KEYS

CITY           SKY/WX    TMP DP  RH WIND       PRES   REMARKS
PUNTA GORDA    FAIR      79  77  94 CALM      30.08R
FT MYERS       FAIR      77  75  93 CALM      30.05S
SOUTHWEST INTL FAIR      76  74  93 SE3       30.06R
NAPLES         FAIR      79  77  94 CALM      30.06R
MARATHON       CLEAR     83  75  77 E3        30.06R
KEY WEST NAS   PTCLDY    83  75  77 E5        30.06R
KEY WEST INTL  CLEAR     84  74  71 E5        30.06R

STATION/POSITION SKY/WX   TEMP    WIND        PRES    WAVE   SWELL
                          AIR SEA DIR/SP/G            HT/PER HT/PER
                          (F)     (DEG/KT/KT) (MB)    (FT/S) (FT/S)
VENICE                     81 89   80/  5/  6 1016.9R
NAPLES                     78 91   80/  2/  4 1018.3F
DRY TORTUGAS               85      70/  5/  6 1017.6F
NW FL BAY                  85     330/  2/  3 1017.9R
SAND KEY                   84      80/  5/  6 1017.9R
SOMBRERO KEY               84      50/  4/  5 1018.3S
LONG KEY                   83 88   CALM  /  3 1018.5S
MOLASSES REEF              83 86  150/  5/  6 1017.8R

$$
FLZ067-068-071>074-168-172>174-230300-
SOUTHEAST FLORIDA

CITY           SKY/WX    TMP DP  RH WIND       PRES   REMARKS
W PALM BEACH   MOCLDY    80  74  81 CALM      30.06R
FT LAUDER-EXEC FAIR      81  79  94 CALM      30.06S
FT LAUDERDALE  FAIR      80  78  94 CALM      30.06R
POMPANO BEACH    N/A    N/A N/A N/A MISG      30.06S
PEMBROKE PINES FAIR      80  76  87 NE3       30.07R
OPA LOCKA        N/A    N/A N/A N/A NE5       30.06S
MIAMI          MOCLDY    84  74  71 SE3       30.06S
WEST KENDALL   FAIR      84  74  71 S5        30.06R
HOMESTEAD      FAIR      81  76  85 SE2       30.06S

STATION/POSITION SKY/WX   TEMP    WIND        PRES    WAVE   SWELL
                          AIR SEA DIR/SP/G            HT/PER HT/PER
                          (F)     (DEG/KT/KT) (MB)    (FT/S) (FT/S)
PORT EVERGLADES            82     360/  2/  3 1018.0
VIRGINIA KEY               84 87  140/  5/  9   N/A
LAKE WORTH                 83 85              1017.9R
FOWEY ROCKS                84 85  130/  8/  9 1018.1R
SETTLEMENT POINT           81     130/  6/  8 1019.2R

$$



USA.gov is the U.S. government's official web portal to all federal, state and local government web resources and services.